Lexington Weather

Lexington, Massachusetts, USA

76°F
7/25/2024 11:02am 
  • Lexington Conditions: Mostly cloudy
  • Temperature: 76.1°F / 24.5°CWarmer 2.0°F than last hour.
  • Dew Point: 71.6°FIncreased 0.4°Fsince last hour.
  • Relative Humidity: 86%Decreased 5.0% since last hour.
  • Wind: Wind from SW SW 2 mph, 10-min avg: 3 mph, gust: 8 mph
  • Barometer: 29.96 in Steady
  • Visibility: 10 miles
  • Rain Today: 0.00 in
  •   

Regional Weather Roundup
for Boston, MA

        
000
ASUS41 KBOX 230810
RWRBOX

REGIONAL WEATHER ROUNDUP
NATIONAL WEATHER SERVICE BOSTON/NORTON MA
400 AM EDT TUE JUL 23 2024

NOTE:  "FAIR" INDICATES FEW OR NO CLOUDS BELOW 12,000 FEET WITH NO 
SIGNIFICANT WEATHER AND/OR OBSTRUCTIONS TO VISIBILITY.

MAZALL-230900-
EASTERN MASSACHUSETTS
  
CITY           SKY/WX    TMP DP  RH WIND       PRES   REMARKS
BOSTON         LGT RAIN  70  69  97 SE5       30.01F                  
BEVERLY        LGT RAIN  71  69  93 S6        30.00S                  
LAWRENCE       LGT RAIN  73  70  90 S5        30.02S                  
BEDFORD        CLOUDY    72  70  93 S7        29.99F                  
NORWOOD        CLOUDY    73  72  96 SE3       30.01S                  
MARSHFIELD     CLOUDY    70  66  88 S5        30.01S                  
PLYMOUTH       LGT RAIN  71  68  90 SE3       30.01F                  
TAUNTON        LGT RAIN  72  67  84 CALM      30.01S                  
NEW BEDFORD    RAIN      74  72  93 SE7       30.00S                  
$$

MAZALL-230900-
CAPE COD AND THE ISLANDS
  
CITY           SKY/WX    TMP DP  RH WIND       PRES   REMARKS
FALMOUTH       LGT RAIN  70  68  94 S7        30.04S                  
HYANNIS        LGT RAIN  70  68  93 SE6       30.01S                  
CHATHAM        LGT RAIN  66  63  90 SE7       30.04R                  
PROVINCETOWN   LGT RAIN  71  70  96 SE6       30.03S                  
NANTUCKET      RAIN      67  67 100 E8          N/A  FOG              
MARTHAS VNYRD  RAIN      69  66  90 SE10      30.00F FOG              
$$
 
MAZALL-230900-
CENTRAL AND WESTERN MASSACHUSETTS
  
CITY           SKY/WX    TMP DP  RH WIND       PRES   REMARKS
WORCESTER      CLOUDY    71  69  93 S3        30.03S                  
FITCHBURG      CLOUDY    73  70  90 SE5       30.01S                  
ORANGE         LGT RAIN  71  69  93 NW3       30.01F                  
SPRINGFIELD    CLOUDY    72  70  92 S6        29.97S                  
WESTFIELD      LGT RAIN  70  69  97 CALM      30.00R                  
NORTH ADAMS    LGT RAIN  68  67  96 CALM      30.00F                  
PITTSFIELD     LGT RAIN  68  65  90 S9G20     30.01F FOG              
$$
 
RIZALL-230900-
RHODE ISLAND
  
CITY           SKY/WX    TMP DP  RH WIND       PRES   REMARKS
PROVIDENCE     LGT RAIN  71  69  93 SE7       30.00F                  
NEWPORT        LGT RAIN  70  68  93 SE3       30.00F                  
BLOCK ISLAND   LGT RAIN  68  64  88 SE10        N/A                   
SMITHFIELD     LGT RAIN  71  71 100 VRB7      30.02F                  
WESTERLY       CLOUDY    71  68  90 CALM      29.99F                  
$$
 
CTZALL-230900-
CONNECTICUT
  
CITY           SKY/WX    TMP DP  RH WIND       PRES   REMARKS
BRADLEY INTL   LGT RAIN  73  69  87 W6        29.99S                  
HARTFORD       RAIN      71  69  93 SE6       29.99R FOG              
PLAINVILLE     LGT RAIN  70  70 100 CALM      29.99F FOG              
BRIDGEPORT     CLOUDY    72  68  87 SE9       29.97F                  
DANBURY        CLOUDY    70  68  93 E3        30.00S                  
GROTON         CLOUDY    72  69  90 E5        29.98F                  
NEW HAVEN      CLOUDY    74  70  87 SE5       29.98F                  
CHESTER        MOCLDY    70  70 100 SE5       30.00S                  
MERIDEN        LGT RAIN  70  66  87 NW3       29.99F                  
WILLIMANTIC    LGT RAIN  70  68  93 S5G18     30.00S FOG              
OXFORD         CLOUDY    66  66 100 NE5       30.01F                  
$$

MEZ002-015-021-024-NHZ003-005-008-011-012-014-VTZ005-008-230900-
NORTHERN NEW ENGLAND
  
CITY           SKY/WX    TMP DP  RH WIND       PRES   REMARKS
PORTLAND ME    CLOUDY    67  66  97 CALM      30.00F                  
BANGOR ME      CLOUDY    65  64  97 E3        30.03F FOG              
CONCORD NH     CLOUDY    71  67  87 S3        29.99F                  
MANCHESTER NH  CLOUDY    74  69  85 S8        29.99S                  
NASHUA NH      CLOUDY    73  73 100 SE3       30.00F                  
PORTSMOUTH NH  CLOUDY    71  67  84 SE7       29.99S                  
JAFFREY NH     CLOUDY    72  68  87 S5        30.03S                  
KEENE NH       CLOUDY    70  68  94 CALM      30.00S                  
BURLINGTON VT  LGT RAIN  71  66  84 CALM      29.98S                  
MT. WASHINGTON LGT RAIN  48  48 100 SW14        N/A  VSB 1/8          
$$

NYZ052-076-230900-
EASTERN NEW YORK
  
CITY           SKY/WX    TMP DP  RH WIND       PRES   REMARKS
ALBANY         LGT RAIN  72  69  90 CALM      29.98F                  
NEW YORK CITY  LGT RAIN  70  67  90 NE8       29.95F                  
$$
 
ANZALL-230900-
MARINE OBSERVATIONS
  
STATION/POSITION TIME  TEMP    WIND        PRES    VSBY  WAVE
                       AIR SEA DIR/SP/G                  HT/PER
                 (UTC) (F)     (DEG/KT/KT) (MB)    (MI)  (FT/S)
BOSTON BUOY      0750   69 67  160/  8/ 10 1016.4F         1/ 8
BUZZARDS BAY     0700   72     150/ 13/ 13 1016.0F
NANTUCKET SOUND  0750   71 76  140/ 16/ 17 1016.2R         1/ 3
MASS BAY-STELLWA 0604   66 63  160/  6/  8 1016.6F  1 7/8  1/11
ISLE OF SHOALS   0700   71     190/ 16/ 16 1015.3F
S OF BLOCK IS    0756      73                N/A           4/ 5
$$

......................KEY.........................
  SKY/WX - SKY CONDITION/PRESENT WEATHER
  TMP    - TEMPERATURE IN FAHRENHEIT
  DWPT   - DEWPOINT IN FAHRENHEIT
  RH     - RELATIVE HUMIDITY IN PERCENT
  WIND   - DIRECTION AND SPEED IN MPH
  PRES   - MEAN SEA LEVEL PRESSURE IN INCHES OF HG
  WCI    - WIND CHILL INDEX
  VSB    - VISIBILITY IN MILES
  HX     - HEAT INDEX
  TC     - TEMPERATURE IN CELSIUS
  VRB    - VARIABLE WIND DIRECTION
  N/A    - NOT AVAILABLE
  
      

Other recent Regional Weather Roundups

Thu Jul 25, 10:10am EDT

Thu Jul 25, 9:10am EDT

Thu Jul 25, 8:10am EDT

Thu Jul 25, 7:10am EDT

Thu Jul 25, 6:10am EDT

Thu Jul 25, 5:10am EDT

Thu Jul 25, 4:10am EDT

Thu Jul 25, 3:10am EDT

Thu Jul 25, 2:10am EDT

Thu Jul 25, 1:10am EDT

Thu Jul 25, 12:10am EDT

Wed Jul 24, 11:10pm EDT

Wed Jul 24, 10:10pm EDT

Wed Jul 24, 9:10pm EDT

Wed Jul 24, 8:10pm EDT

Wed Jul 24, 7:10pm EDT

Wed Jul 24, 6:10pm EDT

Wed Jul 24, 5:10pm EDT

Wed Jul 24, 4:10pm EDT

Wed Jul 24, 3:10pm EDT

Wed Jul 24, 2:10pm EDT

Wed Jul 24, 1:10pm EDT

Wed Jul 24, 12:10pm EDT

Wed Jul 24, 11:10am EDT

Wed Jul 24, 10:10am EDT

Wed Jul 24, 9:10am EDT

Wed Jul 24, 8:10am EDT

Wed Jul 24, 7:10am EDT

Wed Jul 24, 6:10am EDT

Wed Jul 24, 5:10am EDT

Wed Jul 24, 4:10am EDT

Wed Jul 24, 3:10am EDT

Wed Jul 24, 2:10am EDT

Wed Jul 24, 1:10am EDT

Wed Jul 24, 12:10am EDT

Tue Jul 23, 11:10pm EDT

Tue Jul 23, 10:10pm EDT

Tue Jul 23, 9:10pm EDT

Tue Jul 23, 8:10pm EDT

Tue Jul 23, 7:10pm EDT

Tue Jul 23, 6:10pm EDT

Tue Jul 23, 5:10pm EDT

Tue Jul 23, 4:10pm EDT

Tue Jul 23, 3:10pm EDT

Tue Jul 23, 2:10pm EDT

Tue Jul 23, 1:10pm EDT

Tue Jul 23, 12:10pm EDT

Tue Jul 23, 11:10am EDT

Tue Jul 23, 10:10am EDT

Tue Jul 23, 10:10am EDT

Tue Jul 23, 9:10am EDT

Tue Jul 23, 8:10am EDT

Tue Jul 23, 7:10am EDT

Tue Jul 23, 6:10am EDT

Tue Jul 23, 5:10am EDT

Tue Jul 23, 3:10am EDT

Tue Jul 23, 2:10am EDT

Tue Jul 23, 1:10am EDT

Tue Jul 23, 12:10am EDT

Mon Jul 22, 11:10pm EDT

Mon Jul 22, 10:10pm EDT

Mon Jul 22, 9:10pm EDT

Mon Jul 22, 8:10pm EDT

Mon Jul 22, 7:10pm EDT

Mon Jul 22, 6:10pm EDT

Mon Jul 22, 5:10pm EDT

Mon Jul 22, 4:10pm EDT

Mon Jul 22, 3:10pm EDT

Mon Jul 22, 2:10pm EDT

Mon Jul 22, 1:10pm EDT

Mon Jul 22, 12:10pm EDT

Mon Jul 22, 11:10am EDT

Mon Jul 22, 10:10am EDT

Mon Jul 22, 9:10am EDT

Mon Jul 22, 8:10am EDT

Mon Jul 22, 7:10am EDT

Mon Jul 22, 6:10am EDT

Mon Jul 22, 5:10am EDT

Mon Jul 22, 4:10am EDT

Mon Jul 22, 3:10am EDT

Mon Jul 22, 2:10am EDT

Mon Jul 22, 1:10am EDT

Mon Jul 22, 12:10am EDT

Sun Jul 21, 11:10pm EDT

Sun Jul 21, 10:10pm EDT

Sun Jul 21, 9:10pm EDT

Sun Jul 21, 8:10pm EDT

Sun Jul 21, 7:10pm EDT

Sun Jul 21, 6:10pm EDT

Sun Jul 21, 5:10pm EDT

Sun Jul 21, 4:10pm EDT

Sun Jul 21, 3:10pm EDT

Sun Jul 21, 2:10pm EDT

Sun Jul 21, 1:10pm EDT

Sun Jul 21, 12:10pm EDT

Sun Jul 21, 11:10am EDT

Sun Jul 21, 10:10am EDT

Sun Jul 21, 9:10am EDT

Sun Jul 21, 8:10am EDT

Sun Jul 21, 7:10am EDT

Sun Jul 21, 6:10am EDT

Sun Jul 21, 5:10am EDT

Sun Jul 21, 4:10am EDT

Sun Jul 21, 3:10am EDT

Sun Jul 21, 2:10am EDT

Sun Jul 21, 1:10am EDT

Sun Jul 21, 12:10am EDT

Sat Jul 20, 11:10pm EDT

Sat Jul 20, 10:10pm EDT

Sat Jul 20, 9:10pm EDT

Sat Jul 20, 8:10pm EDT

Sat Jul 20, 7:10pm EDT

Sat Jul 20, 6:10pm EDT

Sat Jul 20, 5:10pm EDT

Sat Jul 20, 4:10pm EDT

Sat Jul 20, 3:10pm EDT

Sat Jul 20, 2:10pm EDT

Sat Jul 20, 1:10pm EDT

Sat Jul 20, 12:10pm EDT

Sat Jul 20, 11:10am EDT

Sat Jul 20, 10:10am EDT

Sat Jul 20, 9:10am EDT

Sat Jul 20, 8:10am EDT

Sat Jul 20, 7:10am EDT

Sat Jul 20, 6:10am EDT

Sat Jul 20, 5:10am EDT

Sat Jul 20, 4:10am EDT

Sat Jul 20, 3:10am EDT

Sat Jul 20, 2:10am EDT

Sat Jul 20, 1:10am EDT

Sat Jul 20, 12:10am EDT

Fri Jul 19, 11:10pm EDT

Fri Jul 19, 10:10pm EDT

Fri Jul 19, 9:10pm EDT

Fri Jul 19, 8:10pm EDT

Fri Jul 19, 7:10pm EDT

Fri Jul 19, 6:10pm EDT

Fri Jul 19, 5:10pm EDT

Fri Jul 19, 4:10pm EDT

Fri Jul 19, 3:10pm EDT

Fri Jul 19, 2:10pm EDT

Fri Jul 19, 1:10pm EDT

Fri Jul 19, 12:10pm EDT

Fri Jul 19, 11:10am EDT

Fri Jul 19, 10:10am EDT

Fri Jul 19, 9:10am EDT

Fri Jul 19, 8:10am EDT

Fri Jul 19, 7:10am EDT

Fri Jul 19, 6:10am EDT

Fri Jul 19, 5:10am EDT

Fri Jul 19, 4:10am EDT

Fri Jul 19, 3:10am EDT

Fri Jul 19, 2:10am EDT

Fri Jul 19, 1:10am EDT

Fri Jul 19, 12:10am EDT

Thu Jul 18, 11:10pm EDT

Thu Jul 18, 10:10pm EDT

Thu Jul 18, 9:10pm EDT

Thu Jul 18, 8:10pm EDT

Thu Jul 18, 7:10pm EDT

Thu Jul 18, 6:10pm EDT

Thu Jul 18, 5:10pm EDT

Thu Jul 18, 4:10pm EDT

Thu Jul 18, 3:10pm EDT

Thu Jul 18, 2:10pm EDT

Thu Jul 18, 1:10pm EDT

Thu Jul 18, 12:10pm EDT

Thu Jul 18, 11:10am EDT